�s�撬���R�[�h,No.,����,���̃J�i,�Z��,�ܓx,�o�x,�d�b�ԍ�,�s���{����,�s�撬����,�ЊQ��ʁQ�^��,�ЊQ��ʁQ�R����A�y�Η��y�ђn����,�ЊQ��ʁQ����,�ЊQ��ʁQ�n�k,�ЊQ��ʁQ�Ôg,�ЊQ��ʁQ��K�͂ȉΎ�,�w����Ƃ̏d��,�z����e�l��,���l
163422,1634221001,���P���w�Z ,�j���E�[���V���E�K�b�R�E,�x�R�����V��S���P�����V3945 ,36.935188,137.503937,0765-72-1114 ,�x�R��,���P��,�P,�P,1,�P,�P,,�P,7756,
163422,1634221002,���P���w�Z ,�j���E�[���`���E�K�b�R�E,�x�R�����V��S���P�����V4849 ,36.940212,137.506302,0765-72-1117 ,�x�R��,���P��,�P,�P,�P,�P,�P,,�P,7845,
163422,1634221003,���P�����w�Z �i�̈�فE������E������فE�O���E���h �j,�j���E�[���R�E�g�E�K�b�R�E,�x�R�����V��S���P�����V3963 ,36.933716,137.505295,0765-72-1145 ,�x�R��,���P��,�P,�P,�P,�P,�P,,�P,11718,
163422,1634221004,�����̈�� ,�\�E�S�E�^�C�C�N�J��,�x�R�����V��S���P�����V468 ,36.935188,137.503937,0765-74-2500 ,�x�R��,���P��,�P,�P,1,�P,�P,�P,�P,3857,
163422,1634221005,���邨���� ,�E���I�C�J��,�x�R�����V��S���P�����V5232-5 ,36.935188,137.503937,0765-72-0123 ,�x�R��,���P��,�P,�P,1,�P,�P,,�P,2007,
163422,1634221006,������� ,�`���E�~���J�C�J��,�x�R�����V��S���P�����V3200 ,36.935078,137.501465,0765-72-1105 ,�x�R��,���P��,�P,�P,1,�P,�P,,�P,2978,
163422,1634221007,�ΘJ�ҕ����Z���^�[ ,�L�����E�V���t�N�V�Z���^�[,�x�R�����V��S���P�����V2973-10 ,36.935863,137.499817,0765-72-4264 ,�x�R��,���P��,�P,�P,1,,�P,,�P,252,
163422,1634221008,�����Z���^�[ ,�W�h�E�Z���^�[,�x�R�����V��S���P�����V4517-3 ,36.936676,137.504822,0765-72-1990 ,�x�R��,���P��,�P,�P,1,�P,�P,,�P,314,
163422,1634221009,�ɂイ����ۈ珊 ,�j���E�[���z�C�N�V��,�x�R�����V��S���P�����V3837-1 ,36.935188,137.503937,0765-72-0134 ,�x�R��,���P��,,�P,1,�P,�P,,�P,837,
163422,1634221010,����w�Z ,�W���E�Z�C�V���E�K�b�R�E,�x�R�����V��S���P�����210 ,36.928802,137.487625,0765-72-0164 ,�x�R��,���P��,�P,�P,1,�P,�P,�P,�P,10308,
163422,1634221011,���P�����w�Z ,�j���E�[���j�V�`���E�K�b�R�E,�x�R�����V��S���P�����549 ,36.927654,137.493652,0765-72-4770 ,�x�R��,���P��,�P,�P,1,�P,�P,�P,�P,15239,
163422,1634221012,�Y�ƓW����� ,�T���M���E�e���W�J�C�J��,�x�R�����V��S���P�����777-1 ,36.927654,137.493652,0765-74-1087 ,�x�R��,���P��,�P,�P,1,�P,�P,�P,�P,353,
163422,1634221013,�V�l�����Z���^�[ ,���E�W���t�N�V�Z���^�[,�x�R�����V��S���P�����403-2 ,36.927654,137.493652,0765-72-1740 ,�x�R��,���P��,,�P,1,�P,�P,�P,�P,536,
163422,1634221014,���킷���ۈ珊 ,�T���X�M�z�C�N�V��,�x�R�����V��S���P�����255-1 ,36.927654,137.493652,0765-72-4100 ,�x�R��,���P��,,�P,1,�P,�P,�P,�P,3468,
163422,1634221015,�L�擭���w�l�̉� ,�R�E�C�L�n�^���N�t�W���m�C�G,�x�R�����V��S���P����170-1 ,36.923923,137.48114,0765-74-1089 ,�x�R��,���P��,,�P,1,�P,�P,�P,�P,397,
163422,1634221016,�і쏬�w�Z ,�C�C�m�V���E�K�b�R�E,�x�R�����V��S���P������171 ,36.924038,137.458817,0765-72-1030 ,�x�R��,���P��,�P,�P,1,�P,�P,�P,�P,11170,
163422,1634221017,�і�R�~���j�e�B �h�ЃZ���^�[ ,�C�C�m�R�~���j�e�B�{�E�T�C�Z���^�[,�x�R�����V��S���P������171-1,36.924038,137.458817,0765-72-5723 ,�x�R��,���P��,,�P,1,�P,�P,�P,�P,707,
163422,1634221018,�����̕ۈ珊 ,�C�C�m�z�C�N�V��,�x�R�����V��S���P������101-1,36.923854,137.457022,0765-72-3508,�x�R��,���P��,,�P,1,1,�P,�P,�P,659,
163422,1634221019,�������w�Z ,�R�N�g�E�V���E�K�b�R�E,�x�R�����V��S���P��������402 ,36.890331,137.511246,0765-78-0602 ,�x�R��,���P��,�P,�P,1,�P,�P,�P,�P,7187,
163422,1634221020,�����˒n������� ,�R�X���h�`�N�R�E�~���J��,�x�R�����V��S���P����h622-1 ,36.897598,137.507828,0765-78-0044 ,�x�R��,���P��,�P,�P,1,�P,�P,�P,�P,352,
163422,1634221021,������ۈ珊 ,�R�A���z�C�N�V��,�x�R�����V��S���P��������394 ,36.890331,137.511246,0765-78-2629 ,�x�R��,���P��,,�P,1,�P,�P,�P,�P,454,
163422,1634221022,�V�������� ,�A�����R�E�~���J��,�x�R�����V��S���P���V��2541 ,36.906898,137.518524,0765-78-1288 ,�x�R��,���P��,,�P,1,�P,�P,�P,�P,364,
163422,1634221023,�������w�Z ,�g�E���V���E�K�b�R�E,�x�R�����V��S���P�����R813 ,36.938816,137.517136,0765-74-9001 ,�x�R��,���P��,�P,�P,1,�P,�P,�P,�P,7599,
163422,1634221024,���R������ ,�N�k�M���}�R�E�~���J��,�x�R�����V��S���P�����R3410 ,36.938816,137.517136,0765-72-1980 ,�x�R��,���P��,,�P,1,�P,�P,�P,�P,1860,
163422,1634221025,���R�ۈ珊 ,�N�k�M���}�z�C�N�V��,�x�R�����V��S���P�����R3515-2 ,36.938816,137.517136,0765-72-2766 ,�x�R��,���P��,,�P,1,�P,�P,�P,�P,1116,
163422,1634221026,���R�n��𗬖h�ЃZ ���^�[ ,���R���}�`�N�R�E�����E�{�E�T�C�Z���^�[,�x�R�����V��S���P�����R81,36.95488,137.51825,0765-72-0287 ,�x�R��,���P��,,�P,1,�P,�P,�P,�P,405,
163422,1634221027,�ΘJ�ґ����X�|�[�c�{�݁y�T���r���b�W�z ,�L�����E�V���\�E�S�E�X�|�[�c�V�Z�c,�x�R�����V��S���P�����R81,36.95488,137.51825,0765-72-0235 ,�x�R��,���P��,,�P,1,�P,�P,�P,�P,4790,
163422,1634221028,���R�ۈ珊 ,���R���}�z�C�N�V��,�x�R�����V��S���P�����R78,36.953411,137.520233,0765-72-1802 ,�x�R��,���P��,,�P,1,,�P,�P,�P,807,
163422,1634221029,�Ђ΂�쏬�w�Z ,�q�o���m�V���E�K�b�R�E,�x�R�����V��S���P���M��590-1 ,36.889477,137.550293,0765-78-1200 ,�x�R��,���P��,�P,�P,1,�P,�P,�P,�P,6913,
163422,1634221030,�M���𗬃Z���^�[ ,�t�i�~�R�E�����E�Z���^�[,�x�R�����V��S���P���M��1863 ,36.889698,137.552994,0765-78-1350 ,�x�R��,���P��,,�P,1,�P,�P,�P,�P,346,
163422,1634221031,�Љ�̈�� ,�V���J�C�^�C�C�N�J��,�x�R�����V��S���P���M��1870 ,36.889477,137.550293,0765-78-2378 ,�x�R��,���P��,,�P,1,�P,�P,�P,�P,425,
163422,1634221032,�Ђ΂��ۈ珊 ,�q�o���m�z�C�N�V��,�x�R�����V��S���P���M��584-1 ,36.889477,137.550293,0765-78-1210 ,�x�R��,���P��,,�P,1,�P,�P,�P,�P,277,
163422,1634221033,�쒆�n��𗬃Z���^�[,�m�W���E�`�N�R�E�����E�Z���^�[,�x�R�����V��S���P���쒆410 ,36.9048,137.545929,0765-78-1327 ,�x�R��,���P��,�P,�P,1,�P,�P,�P,�P,3478,
163422,1634221034,���������V�� ,�I�A�V�X�j�C�J��,�x�R�����V��S���P�����2803 ,36.924534,137.502411,0765-74-0800 ,�x�R��,���P��,�P,�P,1,�P,�P,�P,,100,
163422,1634221035,���P���������� ,�j���E�[���}�`�`���E�I�E�R�E�G��,�x�R�����V��S���P�����V456 ,36.935188,137.503937,0765-72-1100 ,�x�R��,���P��,,�P,1,�P,�P,�P,,46807,
163422,1634221036,���P������ ,�j���E�[���q�K�V�R�E�G��,�x�R�����V��S���P�����V4990-1 ,36.940487,137.507828,0765-72-1100 ,�x�R��,���P��,,�P,1,�P,�P,,,2104,
163422,1634221037,���P������ ,�j���E�[���j�V�R�E�G��,�x�R�����V��S���P�����11433 ,36.927654,137.493652,0765-72-1100 ,�x�R��,���P��,,�P,1,�P,�P,,,1919,
163422,1634221038,���P����� ,�j���E�[���~�i�~�R�E�G��,�x�R�����V��S���P�����V843 ,36.935188,137.503937,0765-72-1100 ,�x�R��,���P��,,�P,1,�P,�P,,,2307,
163422,1634221039,�Ԍ����� ,�J�Q�c�R�E�G��,�x�R�����V��S���P�����V�������c ,36.935188,137.503937,0765-72-1100 ,�x�R��,���P��,,�P,1,�P,�P,,,1839,
163422,1634221040,���P���� ,�~���V�R�E�G��,�x�R�����V��S���P����771-1 ,36.934093,137.50972,0765-72-1100 ,�x�R��,���P��,,�P,1,�P,�P,,,321,
163422,1634221041,���Ԃ��������� ,�R�u�V�W�h�E�R�E�G��,�x�R�����V��S���P�����V7144-2 ,36.939056,137.499603,0765-72-1100 ,�x�R��,���P��,,�P,1,�P,�P,,,201,
163422,1634221042,���傤�ׂ̂܈�Ռ���,�W���E�x�m�}�C�Z�L�R�E�G��,�x�R�����V��S���P���c��792 ,36.948391,137.493988,0765-72-1100 ,�x�R��,���P��,,�P,1,�P,,�P,,7955,
163422,1634221043,�g������ ,���V�����R�E�G��,�x�R�����V��S���P���g��178 ,36.945194,137.478989,0765-72-1100 ,�x�R��,���P��,,�P,1,�P,�P,,,1001,
163422,1634221044,�㌴���� ,�E�G�n���R�E�G��,�x�R�����V��S���P�����777�|1,36.927654,137.493652,0765-72-1100 ,�x�R��,���P��,,�P,1,�P,�P,�P,,1000,
163422,1634221045,��X�M���R�ώ@���� ,�T���X�M�V�[���J���T�c�R�E�G��,�x�R�����V��S���P���g��950 ,36.940208,137.473907,0765-72-1100 ,�x�R��,���P��,,�P,1,�P,,�P,,20900,
163422,1634221046,�������� ,�V���E���m�R�E�G��,�x�R�����V ��S���P����쎚�O�V�c11839 ,36.927654,137.493652,0765-72-1100 ,�x�R��,���P��,,�P,�P,�P,�P,,,897,
163422,1634221047,�ؘZ�{������ ,�A�I�L���b�|���}�c�R�E�G��,�x�R�����V��S���P����1255 ,36.915447,137.487854,0765-72-1100 ,�x�R��,���P��,,�P,1,�P,�P,�P,,938,
163422,1634221048,�і���� ,�C�C�m�R�E�G��,�x�R�����V��S���P����і�V210 ,36.912045,137.478073,0765-72-1100 ,�x�R��,���P��,,�P,1,�P,�P,�P,,580,
163422,1634221049,�V�l���� ,�V���o�}�R�E�G��,�x�R�����V��S���P������39-1,36.926403,137.429138,0765-72-1100 ,�x�R��,���P��,,�P,1,�P,,,,815,
163422,1634221050,������͌����� ,�N���x�K���J�R�E�R�E�G��,�x�R�����V��S���P���{���Y���n�� ,36.914276,137.441437,0765-72-1100 ,�x�R��,���P��,,�P,1,�P,,�P,,11210,
163422,1634221051,���n�N������ ,�Z���W���E�`���E�X�C�R�E�G��,�x�R�����V��S���P�����і�185 ,36.931725,137.439896,0765-72-1100 ,�x�R��,���P��,,�P,1,�P,,�P,,876,
163422,1634221052,���ƎR�N���r���� ,�\�m�P���}���E�X�C�`�R�E�G��,�x�R�����V��S���P�����і�401 ,36.931725,137.439896,0765-72-1100 ,�x�R��,���P��,,�P,1,�P,,�P,,3443,
163422,1634221053,�����ˌ��� ,�R�X���h�R�E�G��,�x�R�����V��S���P��������585 ,36.890331,137.511246,0765-72-1100 ,�x�R��,���P��,,�P,1,�P,�P,�P,,1027,
163422,1634221054,�䂤������� ,���E�J���R�E�G��,�x�R�����V��S���P��������394 ,36.890331,137.511246,0765-72-1100 ,�x�R��,���P��,,�P,1,�P,�P,�P,,1745,
163422,1634221055,�W������ ,�^���Z�C�R�E�G��,�x�R�����V��S���P����h622 ,36.897598,137.507828,0765-72-1100 ,�x�R��,���P��,,�P,1,�P,�P,�P,,1477,
163422,1634221056,�쎩�R���� ,�A�I�m�V�[���R�E�G��,�x�R�����V��S���P�������˒n�� ,36.890331,137.511246,0765-72-1100 ,�x�R��,���P��,,�P,1,�P,�P,�P,,60623,
163422,1634221057,�������� ,�t�N�W�}�R�E�G��,�x�R�����V��S���P������11,36.899609,137.487732,0765-72-1100 ,�x�R��,���P��,,�P,1,�P,�P,�P,,889,
163422,1634221058,���R���� ,�j�U���}�R�E�G��,�x�R�����V��S���P�����R552 ,36.901749,137.531754,0765-72-1100 ,�x�R��,���P��,,�P,1,�P,�P,�P,,1016,
163422,1634221059,���D���� ,�L���E�I���R�E�G��,�x�R�����V��S���P���V��2327 ,36.898216,137.521912,0765-72-1100 ,�x�R��,���P��,,�P,1,�P,�P,�P,,903,
163422,1634221060,��m�؎��R���� ,�n�J�m�L�V�[���R�E�G��,�x�R�����V��S���P����m�ؒn�� ,36.881672,137.540741,0765-72-1100 ,�x�R��,���P��,,�P,1,�P,�P,�P,,111167,
163422,1634221061,���R���� ,�N�k�M���}�R�E�G��,�x�R�����V��S���P�����R3591 ,36.938816,137.517136,0765-72-1100 ,�x�R��,���P��,,�P,1,�P,�P,�P,,839,
163422,1634221062,�t������ ,�J�X�K�R�E�G��,�x�R�����V��S���P���t��726 ,36.959457,137.524857,0765-72-1100 ,�x�R��,���P��,,�P,1,�P,�P,�P,,812,
163422,1634221063,���R���� ,���R���}�R�E�G��,�x�R�����V��S���P�����R1781 ,36.955734,137.515488,0765-72-1100 ,�x�R��,���P��,,�P,1,�P,,,,312,
163422,1634221064,�쒆���� ,�m�W���E�R�E�G��,�x�R�����V��S���P���쒆421 ,36.903389,137.548447,0765-72-1100 ,�x�R��,���P��,�P,�P,1,�P,�P,�P,,877,
163422,1634221065,�쒆������ ,�m�W���E�q�K�V�R�E�G��,�x�R�����V��S���P�����]275 ,36.909237,137.553497,0765-72-1100 ,�x�R��,���P��,,�P,1,�P,�P,�P,,1000,
